User: anonymous   Login
Location: Unspecified
(0.0000°N, 0.0000°E)
Time: 19:02:46
(UTC+00:00)
Language:

FAST 2 (USA 228) - Orbit

View from above orbital plane
View from above orbital plane
View from above satellite
View from above satellite

Ground track
Ground track

The orbit data is extracted from the following two-line orbital elements,

1 37380U 10062M   14033.20310151 0.00000700  00000-0  97442-4 0    04
2 37380  71.9740  79.9879 0014626 282.3762  77.6238 14.77678774    00
Epoch (UTC): 02 February 2014 04:52:27
Eccentricity: 0.0014626
inclination: 71.9740°
perigee height: 626 km
apogee height: 647 km
right ascension of ascending node: 79.9879°
argument of perigee: 282.3762°
revolutions per day: 14.77678774
mean anomaly at epoch: 77.6238°
orbit number at epoch: 0

The dashed part of the orbit path shows where the satellite is in the earth's shadow,  

DLR